Location: Aranbee
(34.0885°N, 118.2342°W)
Time: 09:06:56
(UTC+00:00)

Courier 1B Rocket - Pass Details

Date: 28 November 2020
Orbit: 920 x 1202 km, 28.2° (Epoch: 27 January)

Event Time Altitude Azimuth Distance (km) Brightness Sun altitude
Rises 19:25:13 0° 266° (W) 3,945 8.2 34.3°
Reaches altitude 10° 19:29:00 10° 250° (WSW) 2,930 7.8 34.3°
Maximum altitude 19:33:38 18° 209° (SSW) 2,295 8.1 34.4°
Drops below altitude 10° 19:38:05 10° 167° (SSE) 2,785 8.7 34.4°
Sets 19:41:34 0° 150° (SSE) 3,681 8.8 34.4°
